Regional Weather Roundup
Issued by NWS

Home | Current Version | Previous Version | Graphics & Text | Print | Product List | Glossary On
Versions: 1 2 3 4 5 6 7 8 9 10 11 12 13 14 15 16 17 18 19 20 21 22 23 24 25 26 27 28 29 30 31 32 33 34 35 36 37 38 39 40 41 42 43 44 45 46 47 48 49 50
000
ASUS43 KMKX 170059
RWRWI

WISCONSIN REGIONAL WEATHER ROUNDUP
NATIONAL WEATHER SERVICE MILWAUKEE/SULLIVAN WI
700 PM CST TUE JAN 16 2018

NOTE: "FAIR" INDICATES FEW OR NO CLOUDS BELOW 12,000 FEET WITH NO
SIGNIFICANT WEATHER AND/OR OBSTRUCTIONS TO VISIBILITY.

WIZ001-002-006>008-014>016-023>028-170200-
NORTHWEST WISCONSIN

CITY           SKY/WX    TMP DP  RH WIND       PRES   REMARKS
SUPERIOR ARPT  FAIR       8   0  69 SW9       30.51F WCI  -5
ASHLAND        FAIR       9   3  77 SW8       30.47F WCI  -3
HAYWARD        FAIR       4  -2  76 SW5       30.48F WCI  -5
SIREN          FAIR       2  -4  73 W8        30.54F WCI -11
CUMBERLAND     FAIR       1  -6  71 W7        30.51F WCI -11
RICE LAKE      FAIR       2  -3  78 CALM      30.54S
CHETEK         FAIR       4  -2  77 CALM      30.54S
LADYSMITH      FAIR       8   3  82 SW7       30.50F WCI  -4
EAU CLAIRE     NOT AVBL
MENOMONIE      FAIR       2  -3  79 CALM      30.57F
NEW RICHMOND   FAIR       0  -6  76 SW5       30.56F WCI -10
OSCEOLA        FAIR       1  -5  76 SW8       30.60F WCI -13
$$

WIZ003>005-009-010-017-018-170200-
NORTH CENTRAL WISCONSIN

CITY           SKY/WX    TMP DP  RH WIND       PRES   REMARKS
MANITOWISH WTR FAIR       0  -2  90 SW3       30.38F
ARBOR VITAE    FAIR      11   9  89 W3        30.39F
WOODRUFF       FAIR      11   9  89 W3        30.39F
RHINELANDER    FAIR       2   1  96 W5        30.39F WCI  -8
EAGLE RIVER    FAIR       3  -1  86 CALM      30.37F
LAND O LAKES   FAIR       4   1  88 CALM      30.38F
PHILLIPS       FAIR      11   6  77 W3        30.42S
TOMAHAWK       FAIR       9   6  87 CALM      30.42F
MEDFORD        FAIR       8   5  85 W7        30.44F WCI  -3
MERRILL        FAIR      12   7  82 W7        30.45S WCI   1
$$

WIZ029-030-035-036-043>047-170200-
CENTRAL WISCONSIN

CITY           SKY/WX    TMP DP  RH WIND       PRES   REMARKS
WAUSAU         FAIR      11   6  81 W9        30.44F WCI  -2
MOSINEE        CLEAR     10   7  85 W9        30.47S WCI  -2
MARSHFIELD     FAIR       7   4  87 W8        30.47S WCI  -6
STEVENS POINT  FAIR      13   8  78 W7        30.49S WCI   3
WAUPACA        CLOUDY    22  14  71 W9        30.50R WCI  12
WAUTOMA        FAIR      15   9  76 W12       30.52R WCI   2
WISC RAPIDS    FAIR      13   6  74 W8        30.51S WCI   2
CAMP DOUGLAS   CLEAR      7   3  85 W7        30.53F WCI  -5
$$

WIZ011>013-019>022-031-037>040-048>050-170200-
NORTHEAST WISCONSIN

CITY           SKY/WX    TMP DP  RH WIND       PRES   REMARKS
ANTIGO         FAIR       9   6  87 W3        30.41F
SHAWANO        MOCLDY    20  11  66 CALM      30.47S
OCONTO         FAIR       8   5  89 CALM      30.48R
STURGEON BAY   NOT AVBL
GREEN BAY      FAIR       9   7  92 W5        30.48F WCI   1
MANITOWOC      FLURRIES  13   9  84 W3        30.50R
APPLETON       MOCLDY    16   7  67 W6        30.46S WCI   7
CLINTONVILLE   CLOUDY    19   9  63 W3        30.48S
OSHKOSH        CLOUDY    18  13  80 W5        30.49S WCI  11
$$

WIZ032>034-041-042-053>061-170200-
SOUTHWEST WISCONSIN

CITY           SKY/WX    TMP DP  RH WIND       PRES   REMARKS
LA CROSSE      FAIR       7   0  73 W9        30.60S WCI  -7
SPARTA         FAIR       8   5  88 CALM      30.57F
VIROQUA        FAIR       6   4  90 W7        30.53S WCI  -6
BOSCOBEL       FAIR      10   4  76 SW5       30.60S WCI   2
PRAIRIE DU CHI FAIR       7   2  77 W6        30.61S WCI  -3
PLATTEVILLE    FAIR       8   5  89 W6        30.56S WCI  -2
$$

WIZ056-057-062-063-064-067-068-170200-
SOUTH CENTRAL WISCONSIN

CITY           SKY/WX    TMP DP  RH WIND       PRES   REMARKS
REEDSBURG      FAIR      12   6  76 W7        30.54S WCI   2
BARABOO/DELLS  FAIR      12   6  76 W8        30.52S WCI   1
LONE ROCK      NOT AVBL
MINERAL POINT  FAIR      10   9  92 NW5       30.53S WCI   2
MADISON        FAIR      15   8  73 W6        30.52S WCI   6
MIDDLETON      FAIR      13   8  80 W5        30.53S WCI   6
WATERTOWN      CLOUDY    15  12  88 CALM      30.51S
MONROE         FAIR      12   9  85 W14       30.52S WCI  -3
JANESVILLE     CLEAR     12  10  92 W5        30.53S WCI   4
$$

WIZ051-052-058>065-066-070>072-170200-
SOUTHEAST WISCONSIN

CITY           SKY/WX    TMP DP  RH WIND       PRES   REMARKS
MILWAUKEE      FAIR      19  11  70 NW8       30.50S WCI   9
WAUKESHA       CLEAR     12   9  85 W8        30.51R WCI   1
MILWAUKEE/TIMM CLEAR     12   7  79 W5        30.51S WCI   4
RACINE         FAIR      16   8  71 W5        30.52R WCI   9
BURLINGTON     FAIR       6   3  86 CALM      30.51S
KENOSHA        FAIR      13   6  74 NW6       30.50S WCI   4
FOND DU LAC    CLOUDY    18  10  71 W6        30.49S WCI  10
SHEBOYGAN      MOCLDY     5   3  91 W6        30.49S WCI  -6
WEST BEND      FAIR      12  10  92 CALM      30.49S
JUNEAU         CLOUDY    11   9  90 CALM      30.51R
$$

LSZ147-162-170200-
LAKE SUPERIOR

STATION/POSITION TIME  TEMP    WIND        PRES    WAVE
                       AIR SEA DIR/SP/G            HT/PER
                 (UTC) (F)     (DEG/KT/KT) (MB)    (FT/S)
DEVILS ISLAND    0000   15     230/ 18/ 23 1032.6F
SAXON HARBOR     0040   14     240/  5/  9 1031.5S
$$

LMZ867-665-643>646-170200-
LAKE MICHIGAN

STATION/POSITION TIME  TEMP    WIND        PRES    WAVE
                       AIR SEA DIR/SP/G            HT/PER
                 (UTC) (F)     (DEG/KT/KT) (MB)    (FT/S)
NORTHPORT PIER   0040   16     250/  4/  6 1031.2S
KEWAUNEE LAKESHO 0030   13     300/  4/  4 1031.2S
SHEBOYGAN LAKESH 0000   18     290/  7/  8 1033.7R
PORT WASHINGTON  0040   17     300/  5/  8 1033.9S
MILWAUKEE LAKESH 0030   20     320/  7/ 10   N/A
KENOSHA   LAKESH 0000   18     300/  9/ 13 1032.8
$$

TC  - TEMPERATURE IN CELSIUS
VSB - VISIBILITY IN STATUTE MILES
WCI - WIND CHILL INDEX
HX  - HEAT INDEX





USA.gov is the U.S. government's official web portal to all federal, state and local government web resources and services.